Visibility
15.0 15.0 15.0 15.0 15.0 15.0 15.0 15.0 15.0 15.0 15.0 15.0 15.0 11.9 14.6 15.0 15.0 15.0 15.0 15.0 15.0 15.0 15.0 15.0 15.0 15.0 15.0 15.0 15.0 15.0 15.0 15.0 15.0 2.4 4.5 9.1 8.4 2.6 0.1 0.1 15.0 0.1 0.2
15.0 15.0 15.0 15.0 15.0 15.0 15.0 15.0 15.0 14.6 15.0 15.0 15.0 15.0 15.0 15.0 15.0 15.0 15.0 15.0 15.0 15.0 15.0 15.0 15.0 15.0 15.0 15.0 15.0 15.0 15.0 15.0 15.0 15.0 5.2 0.1 0.0 0.1 0.1 0.1 0.1 0.1 0.2
15.0 15.0 15.0 15.0 15.0 15.0 15.0 15.0 15.0 15.0 15.0 15.0 15.0 15.0 15.0 15.0 15.0 15.0 15.0 15.0 15.0 15.0 15.0 15.0 15.0 15.0 15.0 15.0 15.0 5.4 13.0 15.0 15.0 15.0 0.1 0.0 0.0 0.1 0.0 0.0 0.0 0.1 0.3
8.9 14.4 15.0 15.0 15.0 15.0 15.0 14.6 9.6 15.0 15.0 15.0 15.0 15.0 15.0 15.0 15.0 15.0 15.0 15.0 15.0 15.0 15.0 10.4 15.0 15.0 15.0 15.0 15.0 15.0 11.4 11.3 15.0 15.0 0.2 0.0 0.0 0.1 0.1 0.0 0.0 0.0 0.0
15.0 8.1 5.8 15.0 15.0 15.0 5.3 15.0 12.7 15.0 15.0 15.0 15.0 15.0 15.0 15.0 15.0 15.0 15.0 15.0 15.0 15.0 15.0 15.0 15.0 15.0 15.0 15.0 13.8 7.4 10.3 15.0 15.0 5.5 0.1 0.0 0.0 0.1 0.0 0.1 0.0 0.0 0.1
13.1 10.9 14.5 15.0 15.0 15.0 15.0 15.0 15.0 15.0 15.0 15.0 15.0 15.0 15.0 15.0 0.0 0.1 13.2 15.0 15.0 15.0 15.0 15.0 15.0 15.0 15.0 0.0 0.1 0.1 4.8 9.4 14.9 15.0 3.2 0.1 0.1 0.1 0.1 0.0 0.1 0.1 0.1
15.0 15.0 13.6 15.0 15.0 15.0 15.0 15.0 15.0 15.0 15.0 15.0 15.0 15.0 15.0 14.3 0.0 0.0 0.0 15.0 15.0 15.0 15.0 15.0 15.0 15.0 4.9 12.3 0.0 0.0 8.1 10.3 15.0 15.0 4.5 1.9 0.1 4.3 3.7 0.3 15.0 15.0 0.1
15.0 15.0 15.0 15.0 15.0 15.0 15.0 15.0 15.0 15.0 15.0 15.0 15.0 15.0 15.0 0.1 0.1 0.3 0.1 15.0 15.0 15.0 15.0 15.0 15.0 12.9 6.7 15.0 13.5 9.3 15.0 15.0 15.0 15.0 15.0 15.0 15.0 15.0 15.0 15.0 15.0 0.3 5.7
15.0 15.0 15.0 15.0 15.0 15.0 15.0 15.0 15.0 15.0 15.0 15.0 15.0 15.0 15.0 0.1 0.1 0.1 0.1 15.0 15.0 15.0 15.0 15.0 15.0 15.0 0.0 0.0 15.0 14.7 15.0 2.2 3.8 15.0 15.0 15.0 6.6 15.0 15.0 15.0 15.0 0.9 0.1
15.0 15.0 15.0 15.0 15.0 15.0 15.0 15.0 15.0 15.0 15.0 15.0 15.0 15.0 2.8 0.0 0.0 0.0 0.0 15.0 15.0 0.3 5.1 0.5 0.0 0.1 0.0 0.0 12.0 15.0 0.2 0.6 15.0 15.0 15.0 0.2 10.5 2.9 15.0 15.0 15.0 15.0 15.0
15.0 15.0 15.0 15.0 15.0 15.0 15.0 15.0 15.0 15.0 15.0 15.0 15.0 15.0 15.0 0.2 0.0 0.0 0.0 15.0 15.0 1.1 0.1 0.1 0.1 0.0 0.0 0.0 0.3 15.0 9.1 15.0 5.5 15.0 15.0 15.0 15.0 15.0 15.0 15.0 15.0 15.0 15.0
15.0 15.0 15.0 15.0 15.0 15.0 15.0 15.0 15.0 15.0 15.0 15.0 15.0 8.8 15.0 5.6 0.0 0.0 0.0 1.0 0.7 15.0 1.5 0.3 0.1 0.0 0.0 0.0 0.1 0.0 1.2 15.0 15.0 15.0 15.0 15.0 15.0 15.0 15.0 11.7 15.0 15.0 15.0
15.0 15.0 15.0 15.0 15.0 15.0 15.0 15.0 15.0 15.0 15.0 15.0 15.0 8.4 2.1 13.7 0.0 0.0 0.0 0.0 0.5 6.7 15.0 1.3 0.0 0.0 0.0 0.0 0.0 0.4 15.0 15.0 15.0 15.0 2.2 14.3 15.0 15.0 15.0 15.0 15.0 15.0 15.0
15.0 15.0 15.0 15.0 15.0 15.0 15.0 15.0 15.0 15.0 15.0 15.0 15.0 15.0 15.0 15.0 15.0 2.6 0.6 0.1 0.1 0.1 0.1 0.0 0.0 0.0 0.1 1.0 1.7 12.5 15.0 15.0 15.0 15.0 15.0 15.0 15.0 15.0 15.0 15.0 15.0 15.0 15.0
15.0 15.0 15.0 15.0 15.0 4.5 0.1 0.1 0.1 0.0 0.1 15.0 15.0 15.0 15.0 15.0 13.1 15.0 15.0 2.9 15.0 0.1 0.1 0.5 4.6 0.5 0.2 5.4 15.0 15.0 15.0 15.0 15.0 15.0 15.0 15.0 15.0 15.0 15.0 15.0 15.0 15.0 15.0
15.0 15.0 15.0 15.0 15.0 15.0 0.3 0.1 0.0 0.0 0.0 0.0 0.0 13.9 11.6 0.1 4.2 11.4 0.2 0.0 0.0 0.0 14.7 0.1 0.1 0.1 0.2 0.6 10.7 15.0 15.0 15.0 15.0 15.0 15.0 15.0 15.0 15.0 15.0 15.0 15.0 15.0 15.0
15.0 15.0 15.0 15.0 15.0 15.0 15.0 1.8 0.1 0.0 0.0 0.0 0.0 0.9 15.0 0.1 0.0 0.0 0.0 0.0 0.0 0.1 15.0 2.4 0.1 0.1 0.2 15.0 15.0 15.0 15.0 15.0 15.0 15.0 15.0 15.0 15.0 15.0 3.7 15.0 15.0 15.0 15.0
15.0 15.0 15.0 15.0 15.0 15.0 15.0 15.0 15.0 15.0 15.0 5.3 0.1 0.1 0.0 0.0 0.0 0.0 0.0 0.1 0.2 7.4 15.0 15.0 15.0 15.0 10.8 15.0 15.0 15.0 15.0 15.0 15.0 15.0 15.0 15.0 15.0 15.0 15.0 15.0 15.0 15.0 15.0
15.0 15.0 15.0 15.0 15.0 15.0 15.0 15.0 15.0 15.0 10.4 0.1 0.1 0.1 0.0 0.0 0.0 0.0 0.0 15.0 15.0 15.0 15.0 15.0 15.0 15.0 15.0 15.0 15.0 15.0 15.0 15.0 15.0 15.0 15.0 15.0 15.0 15.0 15.0 15.0 15.0 7.6 3.0
15.0 15.0 15.0 15.0 15.0 15.0 15.0 15.0 15.0 15.0 15.0 4.8 9.8 0.0 0.0 0.1 0.1 0.4 15.0 15.0 15.0 15.0 15.0 15.0 15.0 15.0 15.0 15.0 15.0 15.0 15.0 11.7 15.0 15.0 15.0 15.0 15.0 15.0 15.0 15.0 15.0 15.0 15.0
15.0 15.0 15.0 15.0 15.0 15.0 15.0 15.0 15.0 15.0 15.0 15.0 15.0 0.3 0.0 14.3 15.0 15.0 15.0 15.0 14.1 14.9 14.8 15.0 15.0 15.0 15.0 15.0 15.0 15.0 15.0 15.0 15.0 15.0 15.0 15.0 15.0 15.0 15.0 15.0 15.0 15.0 15.0
15.0 15.0 15.0 15.0 15.0 15.0 15.0 15.0 12.4 15.0 15.0 15.0 15.0 0.1 0.0 15.0 15.0 15.0 15.0 15.0 15.0 15.0 15.0 15.0 15.0 15.0 15.0 15.0 15.0 15.0 15.0 15.0 15.0 15.0 15.0 13.1 15.0 15.0 15.0 15.0 15.0 15.0 15.0
15.0 15.0 15.0 15.0 15.0 0.2 13.0 15.0 13.6 9.9 15.0 15.0 15.0 15.0 1.4 15.0 15.0 15.0 15.0 14.9 9.1 14.9 15.0 14.8 8.2 15.0 15.0 15.0 15.0 15.0 15.0 15.0 9.1 11.6 15.0 15.0 15.0 15.0 15.0 15.0 15.0 15.0 15.0
15.0 15.0 15.0 15.0 15.0 15.0 15.0 15.0 14.6 2.7 15.0 15.0 15.0 15.0 15.0 15.0 15.0 15.0 15.0 15.0 15.0 14.6 14.1 15.0 15.0 8.8 15.0 14.9 15.0 15.0 15.0 15.0 15.0 15.0 15.0 15.0 15.0 12.8 14.7 13.8 12.4 11.5 13.8
15.0 15.0 15.0 15.0 15.0 15.0 15.0 15.0 15.0 15.0 15.0 15.0 15.0 15.0 15.0 15.0 15.0 15.0 15.0 15.0 15.0 15.0 15.0 15.0 10.6 14.4 15.0 15.0 10.4 14.9 12.8 14.4 8.4 0.1 15.0 10.7 15.0 15.0 14.1 15.0 15.0 15.0 11.0
15.0 15.0 15.0 15.0 14.5 15.0 15.0 15.0 15.0 15.0 15.0 15.0 15.0 15.0 15.0 15.0 15.0 15.0 15.0 15.0 15.0 14.6 15.0 15.0 15.0 15.0 15.0 15.0 15.0 15.0 15.0 15.0 15.0 11.5 14.4 13.9 9.6 6.6 13.2 11.9 12.5 15.0 15.0